Weather History for Kalamazoo, MI

Change the Weather History Date:

Wednesday, August 21, 2013

  Actual Average Record
Temperature  
Mean Temperature 76 °F 70 °F  
Max Temperature 86 °F 81 °F 99 °F (1955)
Min Temperature 66 °F 60 °F 42 °F (1950)
Degree Days  
Heating Degree Days 0 0  
Month to date heating degree days 20 0  
Since 1 June heating degree days 76 53  
Since 1 July heating degree days 37 5  
Cooling Degree Days 11 6  
Month to date cooling degree days 75 138  
Year to date cooling degree days 535 564  
Since 1 June cooling degree days 455 523  
Growing Degree Days 26 (Base 50)    
Moisture  
Dew Point 64 °F    
Average Humidity 66    
Maximum Humidity 87    
Minimum Humidity 45    
Precipitation  
Precipitation 0.00 in 0.13 in 1.17 in (1958)
Month to date precipitation 3.95 2.50  
Year to date precipitation 28.84 22.22  
Sea Level Pressure  
Sea Level Pressure 30.08 in    
Wind  
Wind Speed 7 mph (SSW)    
Max Wind Speed 15 mph    
Max Gust Speed 21 mph    
Visibility 10 miles    
Events      
T = Trace of Precipitation, MM = Missing Value Source: NWS Daily Summary

Daily Weather History Graph

Daily Weather History Graph

Search for Another Location

Airport:

Trip Planner

Search our weather history database for the weather conditions in past years. The results will help you decide how hot, cold, wet, or windy it might be!

Date:

Astronomy

Aug. 21, 2013 Rise Set
Actual Time 6:56 AM EDT 8:33 PM EDT
Civil Twilight 6:26 AM EDT 9:03 PM EDT
Nautical Twilight 5:50 AM EDT 9:38 PM EDT
Astronomical Twilight 5:12 AM EDT 10:17 PM EDT
Moon 8:39 PM EDT (8/21) 7:37 AM EDT (8/21)
Length of Visible Light 14h 36m
Length of Day
13h 37m
Full, 100% of the Moon is Illuminated
Aug 21
Full
Aug 28
Last Quarter
Sep 5
New
Sep 12
First Quarter
Sep 19
Full

Hourly Weather History & Observations

Time (EDT) Temp. Heat Index Dew Point Humidity Pressure Visibility Wind Dir Wind Speed Gust Speed Precip Events Conditions
12:53 AM 70.0 °F - 63.0 °F 78% 30.11 in 10.0 mi SSE 3.5 mph - N/A   Clear
1:53 AM 70.0 °F - 63.0 °F 78% 30.11 in 10.0 mi SSE 3.5 mph - N/A   Clear
2:53 AM 69.1 °F - 63.0 °F 81% 30.10 in 10.0 mi SSE 3.5 mph - N/A   Clear
3:53 AM 68.0 °F - 63.0 °F 84% 30.10 in 10.0 mi SSE 4.6 mph - N/A   Clear
4:53 AM 68.0 °F - 63.0 °F 84% 30.09 in 10.0 mi South 4.6 mph - N/A   Clear
5:53 AM 68.0 °F - 63.0 °F 84% 30.10 in 10.0 mi South 4.6 mph - N/A   Clear
6:53 AM 66.9 °F - 63.0 °F 87% 30.11 in 9.0 mi South 5.8 mph - N/A   Partly Cloudy
7:53 AM 68.0 °F - 64.0 °F 87% 30.13 in 4.0 mi South 5.8 mph - N/A   Clear
8:53 AM 70.0 °F - 64.9 °F 84% 30.13 in 7.0 mi South 8.1 mph - N/A   Clear
9:53 AM 73.9 °F - 66.0 °F 76% 30.13 in 9.0 mi SSW 9.2 mph - N/A   Clear
10:53 AM 77.0 °F - 68.0 °F 74% 30.13 in 10.0 mi South 5.8 mph - N/A   Clear
11:53 AM 80.1 °F 82.7 °F 68.0 °F 67% 30.13 in 10.0 mi SW 5.8 mph - N/A   Partly Cloudy
12:53 PM 82.9 °F 85.8 °F 68.0 °F 60% 30.11 in 10.0 mi SSW 11.5 mph - N/A   Partly Cloudy
1:53 PM 84.0 °F 85.8 °F 64.9 °F 53% 30.09 in 10.0 mi SSW 9.2 mph - N/A   Scattered Clouds
2:53 PM 84.0 °F 85.8 °F 64.9 °F 53% 30.08 in 10.0 mi SW 9.2 mph - N/A   Scattered Clouds
3:53 PM 86.0 °F 87.3 °F 64.0 °F 48% 30.06 in 10.0 mi WSW 8.1 mph - N/A   Scattered Clouds
4:53 PM 86.0 °F 86.8 °F 63.0 °F 46% 30.04 in 10.0 mi SW 10.4 mph - N/A   Scattered Clouds
5:46 PM 84.2 °F 85.0 °F 62.6 °F 48% 30.04 in 10.0 mi SW 8.1 mph - N/A   Clear
5:53 PM 84.0 °F 84.9 °F 63.0 °F 49% 30.03 in 10.0 mi SW 10.4 mph - N/A   Partly Cloudy
6:53 PM 84.0 °F 84.5 °F 62.1 °F 47% 30.02 in 10.0 mi WSW 8.1 mph - N/A   Partly Cloudy
7:53 PM 81.0 °F 82.2 °F 63.0 °F 54% 30.01 in 10.0 mi SSW 5.8 mph - N/A   Clear
8:53 PM 77.0 °F - 64.0 °F 64% 30.02 in 10.0 mi SSW 4.6 mph - N/A   Clear
9:53 PM 77.0 °F - 64.9 °F 66% 30.04 in 10.0 mi SSW 5.8 mph - N/A   Overcast
10:53 PM 75.9 °F - 64.9 °F 69% 30.04 in 10.0 mi SSW 8.1 mph - N/A   Partly Cloudy
11:53 PM 75.9 °F - 64.9 °F 69% 30.02 in 10.0 mi SW 8.1 mph - N/A   Mostly Cloudy